Location: Unspecified
(0.0000°N, 0.0000°E)
Time: 18:06:38
(UTC+00:00)

STARLINK 1063 - Pass Details

Date: 22 January 2020
Orbit: 548 x 551 km, 53.0° (Epoch: 17 January)

Event Time Altitude Azimuth Distance (km) Brightness Sun altitude
Rises 05:35:10 0° 236° (SW) 2,710 6.8 -8.5°
Reaches altitude 10° 05:37:43 10° 249° (WSW) 1,814 5.8 -7.9°
Maximum altitude 05:41:04 24° 304° (NW) 1,152 4.7 -7.1°
Drops below altitude 10° 05:44:25 10° 359° (N) 1,807 6.1 -6.3°
Sets 05:46:58 0° 13° (NNE) 2,696 7.1 -5.7°
